GW7498 Weather Reports


Display with metric or nautical units.
time (UTC)temp
F
wind
direction
speed
MPH
gust
MPH
rain 1hr
in
rain 24hr
in
rain mn
in
humidity
%
barometer
mb
20260906120316 93 339 7.0 8.0 0.00 0.00 0.00 38 1009.1
20260906115817 93 274 6.0 9.0 0.00 0.00 0.00 37 1009.1
20260906115315 92 247 12.0 14.0 0.00 0.00 0.00 38 1008.8
20260906114815 91 189 9.0 11.0 0.00 0.00 0.00 39 1008.8
20260906114316 91 228 9.0 14.0 0.00 0.00 0.00 41 1008.8
20260906113815 91 283 8.0 9.0 0.00 0.00 0.00 41 1008.8
20260906113316 91 259 7.0 10.0 0.00 0.00 0.00 41 1009.1
20260906112815 91 276 12.0 15.0 0.00 0.00 0.00 40 1009.5
20260906112316 91 39 7.0 9.0 0.00 0.00 0.00 40 1009.5
20260906111815 91 263 8.0 8.0 0.00 0.00 0.00 41 1009.1
20260906111315 91 195 6.0 9.0 0.00 0.00 0.00 40 1009.1
20260906110815 92 258 7.0 8.0 0.00 0.00 0.00 40 1009.1
20260906110316 91 317 8.0 9.0 0.00 0.00 0.00 40 1009.5
20260906105815 91 286 7.0 9.0 0.00 0.00 0.00 40 1009.5
20260906105315 90 202 7.0 9.0 0.00 0.00 0.00 41 1009.5
20260906104816 91 271 7.0 11.0 0.00 0.00 0.00 41 1009.8
20260906104315 90 260 8.0 9.0 0.00 0.00 0.00 43 1009.5
20260906103815 89 230 14.0 15.0 0.00 0.00 0.00 43 1009.8
20260906103315 90 233 12.0 13.0 0.00 0.00 0.00 42 1009.5
20260906102815 90 338 9.0 11.0 0.00 0.00 0.00 42 1009.8
20260906102315 90 349 6.0 9.0 0.00 0.00 0.00 43 1009.8
20260906101816 89 181 12.0 16.0 0.00 0.00 0.00 44 1009.5
20260906101317 90 338 8.0 10.0 0.00 0.00 0.00 42 1009.8
20260906100815 90 302 9.0 10.0 0.00 0.00 0.00 42 1009.8
20260906100315 90 302 8.0 12.0 0.00 0.00 0.00 41 1009.8
20260906095815 89 315 8.0 11.0 0.00 0.00 0.00 43 1009.5
20260906095315 89 280 8.0 11.0 0.00 0.00 0.00 44 1010.2
20260906094815 88 169 9.0 14.0 0.00 0.00 0.00 45 1010.2
20260906094316 88 272 16.0 17.0 0.00 0.00 0.00 46 1009.8
20260906093816 89 250 9.0 10.0 0.00 0.00 0.00 45 1010.2
20260906093316 88 262 15.0 16.0 0.00 0.00 0.00 47 1009.5
20260906092815 87 287 8.0 9.0 0.00 0.00 0.00 48 1009.8
20260906092315 88 294 9.0 11.0 0.00 0.00 0.00 45 1010.5
20260906091816 88 237 5.0 8.0 0.00 0.00 0.00 47 1009.8
20260906091316 88 337 8.0 10.0 0.00 0.00 0.00 46 1010.2
20260906090815 88 268 9.0 10.0 0.00 0.00 0.00 47 1010.2
20260906090315 87 323 10.0 11.0 0.00 0.00 0.00 48 1009.8
20260906085816 87 272 9.0 11.0 0.00 0.00 0.00 49 1009.8
20260906085316 88 302 8.0 11.0 0.00 0.00 0.00 47 1010.2
20260906084815 87 304 7.0 9.0 0.00 0.00 0.00 48 1010.5
20260906084315 87 17 16.0 17.0 0.00 0.00 0.00 48 1010.5
20260906083815 87 279 9.0 11.0 0.00 0.00 0.00 49 1010.5
20260906083315 87 294 11.0 12.0 0.00 0.00 0.00 47 1010.2
20260906082816 87 269 8.0 9.0 0.00 0.00 0.00 50 1010.2
20260906082317 86 276 10.0 12.0 0.00 0.00 0.00 50 1010.5
20260906081815 87 191 10.0 12.0 0.00 0.00 0.00 50 1010.2
20260906081315 86 329 12.0 14.0 0.00 0.00 0.00 51 1010.8
20260906080815 86 333 9.0 10.0 0.00 0.00 0.00 50 1010.2
20260906080315 86 313 12.0 13.0 0.00 0.00 0.00 51 1010.8
20260906075818 86 275 8.0 9.0 0.00 0.00 0.00 50 1010.5
20260906075315 86 296 10.0 11.0 0.00 0.00 0.00 50 1010.5
20260906074817 85 10 7.0 9.0 0.00 0.00 0.00 51 1010.8
20260906074315 85 330 6.0 9.0 0.00 0.00 0.00 52 1010.5
20260906073815 84 3 11.0 14.0 0.00 0.00 0.00 53 1010.2
20260906073315 84 272 8.0 10.0 0.00 0.00 0.00 53 1010.5
20260906072816 84 307 8.0 10.0 0.00 0.00 0.00 54 1010.8
20260906072317 83 355 11.0 12.0 0.00 0.00 0.00 56 1010.8
20260906071815 83 289 6.0 9.0 0.00 0.00 0.00 56 1011.2
20260906071315 83 6 9.0 11.0 0.00 0.00 0.00 56 1010.5
20260906070815 83 268 9.0 12.0 0.00 0.00 0.00 56 1010.8
20260906070316 82 214 10.0 11.0 0.00 0.00 0.00 57 1010.8
20260906065818 82 268 10.0 11.0 0.00 0.00 0.00 58 1010.5
20260906065315 83 269 9.0 13.0 0.00 0.00 0.00 56 1010.8
20260906064816 83 336 10.0 14.0 0.00 0.00 0.00 57 1011.2
20260906064315 82 316 9.0 11.0 0.00 0.00 0.00 59 1010.8
20260906063815 81 330 9.0 11.0 0.00 0.00 0.00 60 1011.2
20260906063316 81 285 9.0 12.0 0.00 0.00 0.00 59 1010.8
20260906062316 81 309 7.0 10.0 0.00 0.00 0.00 61 1010.8
20260906061815 80 285 16.0 17.0 0.00 0.00 0.00 62 1010.5
20260906061317 80 260 8.0 11.0 0.00 0.00 0.00 62 1010.8
20260906060815 80 260 8.0 11.0 0.00 0.00 0.00 62 1010.8
20260906060315 80 260 6.0 8.0 0.00 0.00 0.00 62 1010.8
20260906055816 80 32 8.0 12.0 0.00 0.00 0.00 62 1011.2
20260906055315 80 318 7.0 10.0 0.00 0.00 0.00 63 1010.8
20260906054816 79 246 8.0 10.0 0.00 0.00 0.00 63 1010.8
20260906054315 79 290 14.0 15.0 0.00 0.00 0.00 63 1010.5
20260906053816 80 342 9.0 12.0 0.00 0.00 0.00 62 1010.5
20260906053315 80 329 4.0 5.0 0.00 0.00 0.00 63 1010.5
20260906052815 79 325 7.0 10.0 0.00 0.00 0.00 64 1010.8
20260906052316 78 266 4.0 5.0 0.00 0.00 0.00 65 1010.5
20260906051815 78 44 7.0 11.0 0.00 0.00 0.00 64 1010.8
20260906051316 78 284 5.0 7.0 0.00 0.00 0.00 65 1010.2
20260906050816 78 273 6.0 8.0 0.00 0.00 0.00 66 1010.8
20260906050317 77 136 9.0 11.0 0.00 0.00 0.00 67 1010.8
20260906045816 77 338 9.0 11.0 0.00 0.00 0.00 67 1010.5
20260906045315 77 267 3.0 5.0 0.00 0.00 0.00 66 1010.8
20260906044815 77 149 4.0 5.0 0.00 0.00 0.00 68 1010.5
20260906044316 76 274 5.0 6.0 0.00 0.00 0.00 69 1010.2
20260906043818 76 255 6.0 8.0 0.00 0.00 0.00 70 1010.2
20260906042815 75 279 8.0 10.0 0.00 0.00 0.00 71 1010.5
20260906042315 75 272 6.0 7.0 0.00 0.00 0.00 71 1010.5
20260906041815 75 277 6.0 8.0 0.00 0.00 0.00 71 1010.5
20260906041315 75 258 6.0 9.0 0.00 0.00 0.00 72 1010.2
20260906040815 77 210 6.0 7.0 0.00 0.00 0.00 72 1010.5
20260906040317 77 320 9.0 12.0 0.00 0.00 0.00 73 1010.5
20260906035815 77 280 6.0 8.0 0.00 0.00 0.00 73 1010.8
20260906035315 77 283 5.0 7.0 0.00 0.00 0.00 73 1010.8
20260906034815 77 283 7.0 9.0 0.00 0.00 0.00 74 1010.8
20260906034316 77 269 6.0 8.0 0.00 0.00 0.00 73 1010.5
20260906033816 77 293 9.0 10.0 0.00 0.00 0.00 74 1010.2
20260906033315 77 287 8.0 10.0 0.00 0.00 0.00 73 1010.5
20260906032815 77 295 8.0 15.0 0.00 0.00 0.00 73 1010.2
20260906032315 77 280 5.0 8.0 0.00 0.00 0.00 73 1010.2
20260906031815 77 207 11.0 11.0 0.00 0.00 0.00 73 1010.2
20260906031316 77 256 9.0 11.0 0.00 0.00 0.00 73 1010.2
20260906030815 77 284 9.0 11.0 0.00 0.00 0.00 72 1010.2
20260906030316 77 272 11.0 15.0 0.00 0.00 0.00 72 1009.8
20260906025815 77 3 5.0 9.0 0.00 0.00 0.00 72 1010.5
20260906025315 77 264 7.0 8.0 0.00 0.00 0.00 72 1009.8
20260906024815 77 329 6.0 8.0 0.00 0.00 0.00 73 1009.8
20260906024316 77 251 8.0 10.0 0.00 0.00 0.00 73 1009.8
20260906023815 77 333 7.0 9.0 0.00 0.00 0.00 73 1010.2
20260906022816 77 17 5.0 7.0 0.00 0.00 0.00 73 1009.5
20260906022315 77 15 8.0 11.0 0.00 0.00 0.00 73 1010.2
20260906021815 77 321 6.0 8.0 0.00 0.00 0.00 72 1010.2
20260906021316 77 276 7.0 9.0 0.00 0.00 0.00 72 1010.2
20260906020815 77 300 4.0 6.0 0.00 0.00 0.00 72 1010.2
20260906020315 77 323 9.0 10.0 0.00 0.00 0.00 72 1010.2
20260906015815 77 272 7.0 8.0 0.00 0.00 0.00 72 1010.2
20260906015315 77 286 6.0 7.0 0.00 0.00 0.00 72 1010.2
20260906014815 77 272 12.0 13.0 0.00 0.00 0.00 72 1010.2
20260906014315 77 266 10.0 12.0 0.00 0.00 0.00 72 1010.2
20260906013815 77 282 8.0 11.0 0.00 0.00 0.00 72 1010.5
20260906013316 77 255 6.0 8.0 0.00 0.00 0.00 72 1010.2
20260906012816 77 285 9.0 11.0 0.00 0.00 0.00 73 1010.2
20260906012315 77 288 6.0 7.0 0.00 0.00 0.00 72 1010.2
20260906011816 77 295 1.0 2.0 0.00 0.00 0.00 73 1010.2
20260906011319 77 326 5.0 6.0 0.00 0.00 0.00 73 1010.5
20260906010815 77 68 6.0 9.0 0.00 0.00 0.00 73 1010.2
20260906010316 77 316 6.0 8.0 0.00 0.00 0.00 73 1010.2
20260906005816 77 318 6.0 8.0 0.00 0.00 0.00 73 1010.2
20260906005317 77 279 8.0 9.0 0.00 0.00 0.00 73 1010.2
20260906004815 77 285 8.0 10.0 0.00 0.00 0.00 73 1010.2
20260906004315 77 246 6.0 8.0 0.00 0.00 0.00 73 1009.8
20260906003815 77 287 7.0 9.0 0.00 0.00 0.00 73 1009.8
20260906003315 77 313 7.0 9.0 0.00 0.00 0.00 73 1009.8
20260906002815 77 238 8.0 11.0 0.00 0.00 0.00 73 1010.5
20260906002315 77 264 8.0 10.0 0.00 0.00 0.00 73 1010.2
20260906001816 77 279 7.0 8.0 0.00 0.00 0.00 73 1010.2
20260906001316 77 284 9.0 10.0 0.00 0.00 0.00 73 1010.5
20260906000816 77 280 9.0 12.0 0.00 0.00 0.00 72 1010.2
20260906000318 77 252 7.0 10.0 0.00 0.00 0.00 73 1009.8
20260905235816 77 296 8.0 9.0 0.00 0.00 0.00 72 1010.5
20260905235315 77 37 7.0 9.0 0.00 0.00 0.00 72 1010.2
20260905234816 77 292 8.0 9.0 0.00 0.00 0.00 72 1009.8
20260905234315 77 294 8.0 9.0 0.00 0.00 0.00 72 1010.2
20260905233815 78 275 8.0 10.0 0.00 0.00 0.00 72 1010.5
20260905233315 78 305 8.0 10.0 0.00 0.00 0.00 71 1010.2
20260905232816 78 293 6.0 9.0 0.00 0.00 0.00 71 1010.2
20260905232316 78 287 6.0 9.0 0.00 0.00 0.00 71 1009.8
20260905231816 78 9 9.0 10.0 0.00 0.00 0.00 71 1010.2
20260905231315 78 284 8.0 10.0 0.00 0.00 0.00 71 1010.2
20260905230815 78 304 6.0 7.0 0.00 0.00 0.00 71 1010.5
20260905230316 78 249 6.0 7.0 0.00 0.00 0.00 71 1010.2
20260905225816 78 359 4.0 5.0 0.00 0.00 0.00 71 1010.2
20260905225315 78 272 5.0 6.0 0.00 0.00 0.00 71 1010.2
20260905224815 78 284 6.0 8.0 0.00 0.00 0.00 70 1009.8
20260905224315 78 309 11.0 14.0 0.00 0.00 0.00 70 1010.2
20260905223816 78 255 4.0 6.0 0.00 0.00 0.00 70 1009.8
20260905222815 78 286 10.0 12.0 0.00 0.00 0.00 70 1009.8
20260905222316 78 354 8.0 9.0 0.00 0.00 0.00 70 1009.8
20260905221816 78 283 8.0 10.0 0.00 0.00 0.00 70 1010.5
20260905221315 78 254 6.0 8.0 0.00 0.00 0.00 70 1010.2
20260905220816 78 285 6.0 8.0 0.00 0.00 0.00 70 1010.2
20260905220315 78 269 10.0 11.0 0.00 0.00 0.00 70 1010.5
20260905215815 78 10 7.0 11.0 0.00 0.00 0.00 70 1010.2
20260905215315 78 289 6.0 9.0 0.00 0.00 0.00 70 1010.2
20260905214815 78 356 7.0 10.0 0.00 0.00 0.00 70 1010.5
20260905214315 78 26 8.0 10.0 0.00 0.00 0.00 70 1010.5
20260905213817 78 323 7.0 9.0 0.00 0.00 0.00 71 1010.2
20260905213315 78 298 10.0 11.0 0.00 0.00 0.00 71 1010.2
20260905212815 79 284 10.0 14.0 0.00 0.00 0.00 71 1010.2
20260905212316 79 275 8.0 12.0 0.00 0.00 0.00 71 1010.8
20260905211817 79 338 11.0 14.0 0.00 0.00 0.00 70 1010.5
20260905211315 79 290 9.0 11.0 0.00 0.00 0.00 70 1010.5
20260905210816 79 281 6.0 8.0 0.00 0.00 0.00 70 1010.8
20260905210316 79 30 3.0 5.0 0.00 0.00 0.00 69 1010.8
20260905205816 79 6 7.0 8.0 0.00 0.00 0.00 69 1010.8
20260905205315 80 351 14.0 16.0 0.00 0.00 0.00 68 1011.2
20260905204819 80 276 6.0 7.0 0.00 0.00 0.00 67 1010.8
20260905204315 80 299 6.0 8.0 0.00 0.00 0.00 67 1010.8
20260905203815 80 229 6.0 7.0 0.00 0.00 0.00 68 1010.8
20260905203317 80 277 7.0 9.0 0.00 0.00 0.00 68 1011.2
20260905202816 80 297 5.0 6.0 0.00 0.00 0.00 68 1010.5
20260905202316 80 300 8.0 9.0 0.00 0.00 0.00 68 1011.2
20260905201815 80 324 6.0 9.0 0.00 0.00 0.00 67 1010.8
20260905201316 80 259 3.0 3.0 0.00 0.00 0.00 67 1010.5
20260905200815 80 13 7.0 9.0 0.00 0.00 0.00 67 1010.5
20260905200315 80 354 5.0 7.0 0.00 0.00 0.00 66 1010.8
20260905195815 80 324 6.0 8.0 0.00 0.00 0.00 66 1010.2
20260905195316 80 274 4.0 5.0 0.00 0.00 0.00 66 1010.8
20260905194816 81 288 8.0 10.0 0.00 0.00 0.00 66 1010.8
20260905194315 81 334 8.0 0.0 0.00 0.00 0.00 66 1010.5
20260905193816 81 274 6.0 8.0 0.00 0.00 0.00 66 1010.8
20260905193315 81 8 4.0 6.0 0.00 0.00 0.00 66 1010.8
20260905191816 81 259 8.0 11.0 0.00 0.00 0.00 65 1010.5
20260905191316 81 1 7.0 9.0 0.00 0.00 0.00 65 1010.5
20260905190815 82 244 10.0 12.0 0.00 0.00 0.00 65 1010.5
20260905190315 82 349 10.0 11.0 0.00 0.00 0.00 64 1010.8
20260905185816 82 172 6.0 8.0 0.00 0.00 0.00 64 1010.5
20260905185315 82 291 5.0 7.0 0.00 0.00 0.00 63 1010.2
20260905184315 82 346 7.0 8.0 0.00 0.00 0.00 63 1009.8
20260905183816 82 28 7.0 9.0 0.00 0.00 0.00 63 1010.2
20260905183316 83 320 6.0 8.0 0.00 0.00 0.00 62 1010.5
20260905182815 83 273 6.0 8.0 0.00 0.00 0.00 62 1010.2
20260905182315 83 216 9.0 12.0 0.00 0.00 0.00 62 1010.5
20260905181815 83 354 8.0 9.0 0.00 0.00 0.00 61 1010.2
20260905181315 83 272 7.0 9.0 0.00 0.00 0.00 61 1010.8
20260905180815 84 300 7.0 10.0 0.00 0.00 0.00 61 1010.2
20260905180315 84 320 6.0 8.0 0.00 0.00 0.00 60 1010.5
20260905175325 84 320 4.0 5.0 0.00 0.00 0.00 60 1010.2
20260905174816 84 353 7.0 7.0 0.00 0.00 0.00 60 1010.5
20260905174316 84 252 8.0 11.0 0.00 0.00 0.00 59 1011.2
20260905173815 85 285 5.0 7.0 0.00 0.00 0.00 59 1010.5
20260905173318 85 267 6.0 9.0 0.00 0.00 0.00 59 1010.8
20260905172817 85 287 7.0 9.0 0.00 0.00 0.00 59 1010.8
20260905172315 85 274 9.0 12.0 0.00 0.00 0.00 58 1010.5
20260905171815 85 25 6.0 9.0 0.00 0.00 0.00 58 1010.2
20260905171316 86 348 8.0 9.0 0.00 0.00 0.00 58 1010.2
20260905170815 86 245 7.0 10.0 0.00 0.00 0.00 58 1010.2
20260905170315 86 288 6.0 8.0 0.00 0.00 0.00 57 1010.2
20260905165815 86 304 5.0 6.0 0.00 0.00 0.00 57 1009.8
20260905165315 87 346 6.0 8.0 0.00 0.00 0.00 56 1010.2
20260905164815 87 290 11.0 12.0 0.00 0.00 0.00 55 1010.2
20260905164317 87 339 7.0 0.0 0.00 0.00 0.00 54 1010.2
20260905163815 87 24 7.0 9.0 0.00 0.00 0.00 54 1009.8
20260905163315 88 304 8.0 9.0 0.00 0.00 0.00 52 1009.5
20260905162816 88 360 9.0 12.0 0.00 0.00 0.00 51 1009.8
20260905162317 88 299 7.0 9.0 0.00 0.00 0.00 51 1009.8
20260905161816 89 323 7.0 8.0 0.00 0.00 0.00 50 1009.5
20260905161315 89 329 6.0 8.0 0.00 0.00 0.00 48 1009.5
20260905160816 89 327 7.0 10.0 0.00 0.00 0.00 47 1009.5
20260905160315 90 287 6.0 9.0 0.00 0.00 0.00 47 1009.5
20260905155815 90 25 8.0 11.0 0.00 0.00 0.00 47 1009.5
20260905155316 90 233 8.0 11.0 0.00 0.00 0.00 47 1009.8
20260905154821 91 359 5.0 8.0 0.00 0.00 0.00 46 1009.8
20260905154316 92 286 7.0 9.0 0.00 0.00 0.00 43 1009.1
20260905153816 93 291 4.0 4.0 0.00 0.00 0.00 40 1009.5
20260905153318 93 318 6.0 6.0 0.00 0.00 0.00 39 1009.5
20260905152815 93 331 5.0 6.0 0.00 0.00 0.00 38 1009.5
20260905152315 94 297 7.0 9.0 0.00 0.00 0.00 37 1009.1
20260905151816 94 203 9.0 11.0 0.00 0.00 0.00 36 1009.5
20260905151316 95 345 7.0 10.0 0.00 0.00 0.00 35 1009.1
20260905150817 95 17 7.0 10.0 0.00 0.00 0.00 35 1009.1
20260905150319 96 3 5.0 7.0 0.00 0.00 0.00 34 1009.5
20260905145816 96 277 10.0 13.0 0.00 0.00 0.00 34 1009.5
20260905145315 96 351 5.0 6.0 0.00 0.00 0.00 34 1009.8
20260905144816 96 345 5.0 6.0 0.00 0.00 0.00 34 1009.5
20260905144315 96 255 7.0 10.0 0.00 0.00 0.00 34 1009.1
20260905143816 96 266 7.0 10.0 0.00 0.00 0.00 34 1009.5
20260905143315 97 274 6.0 9.0 0.00 0.00 0.00 34 1009.5
20260905142815 97 279 7.0 10.0 0.00 0.00 0.00 34 1009.1
20260905142316 96 334 6.0 9.0 0.00 0.00 0.00 34 1009.1
20260905141816 97 213 8.0 10.0 0.00 0.00 0.00 34 1009.1
20260905141316 97 279 5.0 7.0 0.00 0.00 0.00 33 1009.1
20260905140815 97 22 10.0 12.0 0.00 0.00 0.00 34 1009.1
20260905140318 99 240 9.0 9.0 0.00 0.00 0.00 31 1009.1
20260905135816 100 328 6.0 7.0 0.00 0.00 0.00 30 1009.1
20260905134816 100 356 5.0 0.0 0.00 0.00 0.00 28 1009.1
20260905134315 100 11 5.0 0.0 0.00 0.00 0.00 29 1009.5
20260905133817 100 276 8.0 10.0 0.00 0.00 0.00 29 1009.1
20260905133315 101 342 7.0 9.0 0.00 0.00 0.00 29 1009.1
20260905132816 101 18 5.0 7.0 0.00 0.00 0.00 29 1009.1
20260905132315 101 349 5.0 7.0 0.00 0.00 0.00 28 1009.5
20260905131815 101 140 4.0 5.0 0.00 0.00 0.00 29 1008.8
20260905131315 100 305 4.0 6.0 0.00 0.00 0.00 30 1009.1
20260905130815 102 298 6.0 9.0 0.00 0.00 0.00 29 1009.1
20260905130316 102 307 3.0 4.0 0.00 0.00 0.00 29 1009.1
20260905125815 102 194 4.0 7.0 0.00 0.00 0.00 29 1009.1
20260905125315 103 2 4.0 6.0 0.00 0.00 0.00 29 1009.5
20260905124816 102 213 6.0 8.0 0.00 0.00 0.00 29 1009.1
20260905124315 101 284 9.0 11.0 0.00 0.00 0.00 29 1009.1
20260905123816 101 12 5.0 7.0 0.00 0.00 0.00 30 1009.5
20260905122815 102 288 5.0 6.0 0.00 0.00 0.00 30 1009.1
20260905122315 101 282 4.0 6.0 0.00 0.00 0.00 30 1009.5
20260905121315 101 279 6.0 8.0 0.00 0.00 0.00 29 1009.5